Simultaneous Nadir Overpasses (SNOs) Predictions

Prediction of SNOs between AQUA and METOP-B Satellite Orbit:

Table of predicted SNOs for the next 14.0 days since TLE Epoch: 7/9/2022
Index Date (AQUA) Time (AQUA) Lat,Lon (AQUA) SZA (AQUA ) Date (METOP-B) Time (METOP-B) Lat,Lon (METOP-B) SZA (METOP-B ) Distance(km) Time Diff (sec)
1 07/09/2022 21:55:37 -73.96, 25.76 128.28 07/09/2022 21:54:25 -73.96, 25.85 128.27 2.61 72
2 07/09/2022 22:45:05 74.00,-166.68 51.77 07/09/2022 22:45:04 73.98,-166.76 51.76 2.87 1
3 07/09/2022 23:34:31 -74.05, 0.84 128.17 07/09/2022 23:35:44 -74.08, 0.82 128.15 3.56 73
4 07/12/2022 17:29:17 -73.96, 92.37 127.90 07/12/2022 17:28:47 -73.96, 92.27 127.89 3.19 30
5 07/12/2022 18:18:46 74.05,-100.20 52.21 07/12/2022 18:19:25 74.04,-100.22 52.19 1.85 39
6 07/15/2022 12:13:31 73.98, -8.72 52.55 07/15/2022 12:12:26 73.96, -8.67 52.53 2.96 65
7 07/15/2022 13:02:57 -74.02, 158.82 127.40 07/15/2022 13:03:07 -74.01, 158.80 127.41 1.41 10
8 07/15/2022 13:52:30 74.33, -34.25 52.94 07/15/2022 13:53:40 74.33, -33.07 52.88 35.42 70
9 07/18/2022 07:47:11 74.02, 57.79 53.06 07/18/2022 07:46:47 74.00, 57.85 53.05 2.46 24
10 07/18/2022 08:36:37 -74.06,-134.66 126.89 07/18/2022 08:37:28 -74.06,-134.68 126.90 0.72 51
11 07/21/2022 02:31:22 -73.97, -43.13 126.48 07/21/2022 02:30:30 -73.97, -43.14 126.47 1.05 52
12 07/21/2022 03:20:50 74.02, 124.38 53.59 07/21/2022 03:21:08 74.04, 124.36 53.61 2.37 18



Historial Predications of SNOs between AQUA and METOP-B
